Regional Weather Roundup
Issued by NWS Bismarck, ND

Home | Current Version | Previous Version | Text Only | Print | Product List | Glossary On
Versions: 1 2 3 4 5 6 7 8 9 10 11 12 13 14 15 16 17 18 19 20 21 22 23 24 25 26 27 28 29 30 31 32 33 34 35 36 37 38 39 40 41 42 43 44 45 46 47 48 49 50
000
ASUS43 KBIS 041302
RWRBIS

NWR BROADCAST TEXT
NATIONAL WEATHER SERVICE BISMARCK ND
800 AM CDT FRI SEP 04 2015

NOTE: "FAIR" INDICATES FEW OR NO CLOUDS BELOW 12,000 FEET WITH NO
SIGNIFICANT WEATHER AND/OR OBSTRUCTIONS TO VISIBILITY.


CITY           SKY/WX    TMP DP  RH WIND       PRES   REMARKS
WILLISTON      CLOUDY    65  55  70 S8G24     29.81R
MINOT          CLOUDY    67  62  84 NW15      29.78R
MINOT AFB      NOT AVBL
BISMARCK       CLOUDY    71  70  96 E5        29.74R
DICKINSON      CLOUDY    64  59  83 NW8       29.80R THUNDER
GARRISON         N/A     68  64  87 VRB3      29.75R
HETTINGER ARPT CLOUDY    64  61  90 NW6       29.79S FOG
JAMESTOWN      CLOUDY    74  72  93 SE10      29.76R FOG
HAZEN          FAIR      66  64  94 E12       29.75R
OAKES            N/A     72  72 100 E8        29.74F
RUGBY          PTSUNNY   72  72 100 SE9       29.76R
STANLEY        CLOUDY    64  63  94 NE13G21   29.85R
$$

CITY           SKY/WX    TMP DP  RH WIND       PRES   REMARKS
GRAND FORKS    MOSUNNY   73  70  90 SE10      29.78R
GRAND FORKS AF PTSUNNY   73  71  91 S10       29.78R
DEVILS LAKE    CLOUDY    73  66  78 SE9       29.75S
FARGO          MOSUNNY   75  71  87 SE13      29.76S
CAVALIER       FOG       73  72  94 SE6       29.78R VSB 1
GRAFTON        CLOUDY    73  73 100 SE13      29.78S
GWINNER          N/A     73  73 100 SE9       29.77S
LANGDON        PTSUNNY   73  73 100 SE10      29.79S FOG
$$

CITY           SKY/WX    TMP DP  RH WIND       PRES   REMARKS
ABERDEEN       CLOUDY    72  69  90 S16       29.76R
MOBRIDGE       LGT RAIN  73  73 100 S9        29.72R
BUFFALO          N/A     61  59  93 W8        29.76R
RAPID CITY     MOCLDY    67  53  61 CALM      29.79S
GLASGOW        PTCLDY    52  44  74 NW15      29.93R
SIDNEY         CLOUDY    63  52  67 W15         N/A
WOLF POINT     MOCLDY    58  44  60 N5        29.91R
GLENDIVE       CLOUDY    55  48  76 NW18G24   29.86S
MILES CITY     CLOUDY    60  45  57 N10       29.86R
BAKER          LGT RAIN  65  61  87 W9        29.86R
$$

CITY           SKY/WX    TMP DP  RH WIND       PRES   REMARKS
BILLINGS       MOCLDY    50  45  83 N7        29.95R
GREAT FALLS    CLOUDY    48  47  96 N7        29.97R
$$




USA.gov is the U.S. government's official web portal to all federal, state and local government web resources and services.